Location: Linz
(48.3300°N, 14.3000°E)
Time: 18:40:50
(UTC+01:00)

OTV 5 (USA 277) - Pass Details

Date: 13 November 2017
Orbit: 404 x 417 km, 43.0° (Epoch: 07 September)

Event Time Altitude Azimuth Distance (km) Brightness Sun altitude
Exits shadow 05:50:59 14° 238° (WSW) 1,228 ? -12.7°
Maximum altitude 05:53:19 32° 179° (S) 720 ? -12.3°
Drops below altitude 10° 05:56:18 10° 114° (ESE) 1,456 ? -11.9°
Sets 05:58:31 0° 104° (ESE) 2,316 ? -11.5°
